| time (UTC) | temp F | wind direction | speed knots | gust knots | rain 1hr in | rain 24hr in | rain mn in | humidity % | barometer mb |
| 20260503184916 | 61 | 220 | 0.0 | 6.1 | 0.00 | 0.00 | 0.00 | 39 | 1017.0 |
| 20260503184413 | 61 | 176 | 2.6 | 5.2 | 0.00 | 0.00 | 0.00 | 36 | 1017.3 |
| 20260503183910 | 60 | 197 | 0.9 | 6.1 | 0.00 | 0.00 | 0.00 | 37 | 1017.4 |
| 20260503183406 | 59 | 186 | 1.7 | 7.0 | 0.00 | 0.00 | 0.00 | 38 | 1017.4 |
| 20260503182903 | 59 | 169 | 3.5 | 7.8 | 0.00 | 0.00 | 0.00 | 37 | 1017.6 |
| 20260503182403 | 59 | 179 | 1.7 | 2.6 | 0.00 | 0.00 | 0.00 | 39 | 1017.6 |
| 20260503181859 | 60 | 186 | 2.6 | 7.8 | 0.00 | 0.00 | 0.00 | 38 | 1017.5 |
| 20260503181356 | 59 | 202 | 1.7 | 1.7 | 0.00 | 0.00 | 0.00 | 36 | 1017.6 |
| 20260503180853 | 60 | 173 | 0.9 | 6.1 | 0.00 | 0.00 | 0.00 | 37 | 1017.7 |
| 20260503180351 | 61 | 137 | 1.7 | 5.2 | 0.00 | 0.00 | 0.00 | 38 | 1017.8 |
| 20260503175847 | 61 | 242 | 0.0 | 3.5 | 0.00 | 0.00 | 0.00 | 37 | 1017.7 |
| 20260503175345 | 61 | 201 | 0.9 | 3.5 | 0.00 | 0.00 | 0.00 | 34 | 1017.8 |
| 20260503174840 | 60 | 270 | 1.7 | 6.1 | 0.00 | 0.00 | 0.00 | 36 | 1017.8 |
| 20260503174339 | 60 | 182 | 0.9 | 3.5 | 0.00 | 0.00 | 0.00 | 35 | 1017.7 |
| 20260503173834 | 60 | 257 | 0.9 | 3.5 | 0.00 | 0.00 | 0.00 | 38 | 1017.8 |
| 20260503173330 | 59 | 219 | 1.7 | 6.1 | 0.00 | 0.00 | 0.00 | 37 | 1018.1 |
| 20260503172827 | 60 | 197 | 1.7 | 3.5 | 0.00 | 0.00 | 0.00 | 35 | 1018.4 |
| 20260503172325 | 60 | 166 | 4.3 | 9.6 | 0.00 | 0.00 | 0.00 | 37 | 1018.0 |
| 20260503171821 | 60 | 195 | 2.6 | 7.0 | 0.00 | 0.00 | 0.00 | 37 | 1018.3 |
| 20260503171318 | 59 | 183 | 2.6 | 3.5 | 0.00 | 0.00 | 0.00 | 37 | 1018.6 |
| 20260503170815 | 59 | 174 | 2.6 | 6.1 | 0.00 | 0.00 | 0.00 | 35 | 1018.7 |
| 20260503170311 | 59 | 200 | 1.7 | 6.1 | 0.00 | 0.00 | 0.00 | 37 | 1018.7 |
| 20260503150704 | 54 | 196 | 0.9 | 2.6 | 0.00 | 0.00 | 0.00 | 51 | 1019.9 |
| 20260503150200 | 53 | 203 | 2.6 | 3.5 | 0.00 | 0.00 | 0.00 | 52 | 1019.8 |
| 20260503140124 | 51 | 195 | 0.9 | 3.5 | 0.00 | 0.00 | 0.00 | 52 | 1019.8 |
| 20260503131054 | 47 | 197 | 1.7 | 3.5 | 0.00 | 0.00 | 0.00 | 60 | 1020.1 |
| 20260503130550 | 47 | 279 | 0.9 | 5.2 | 0.00 | 0.00 | 0.00 | 60 | 1020.1 |
| 20260503110441 | 39 | 178 | 0.0 | 0.9 | 0.00 | 0.00 | 0.00 | 76 | 1019.3 |
| 20260503090332 | 39 | 206 | 0.0 | 0.0 | 0.00 | 0.00 | 0.00 | 78 | 1018.9 |
| 20260503081300 | 36 | 22 | 0.0 | 0.0 | 0.00 | 0.00 | 0.00 | 86 | 1018.8 |
| 20260503080756 | 35 | 23 | 0.0 | 0.0 | 0.00 | 0.00 | 0.00 | 88 | 1018.8 |
| 20260503080253 | 35 | 23 | 0.0 | 0.0 | 0.00 | 0.00 | 0.00 | 89 | 1018.6 |
| 20260503072730 | 35 | 23 | 0.0 | 0.0 | 0.00 | 0.00 | 0.00 | 90 | 1018.7 |
| 20260503072226 | 35 | 23 | 0.0 | 0.0 | 0.00 | 0.00 | 0.00 | 91 | 1018.6 |
| 20260503071723 | 35 | 23 | 0.0 | 0.0 | 0.00 | 0.00 | 0.00 | 91 | 1018.7 |
| 20260503071220 | 35 | 23 | 0.0 | 0.0 | 0.00 | 0.00 | 0.00 | 89 | 1018.7 |
| 20260503070716 | 35 | 23 | 0.0 | 0.0 | 0.00 | 0.00 | 0.00 | 90 | 1018.8 |
| 20260503070215 | 35 | 23 | 0.0 | 0.0 | 0.00 | 0.00 | 0.00 | 90 | 1018.6 |
| 20260503060139 | 35 | 23 | 0.0 | 0.0 | 0.00 | 0.00 | 0.00 | 89 | 1019.0 |
| 20260503054626 | 35 | 23 | 0.0 | 0.0 | 0.00 | 0.00 | 0.00 | 89 | 1019.2 |
| 20260503054123 | 35 | 23 | 0.0 | 0.0 | 0.00 | 0.00 | 0.00 | 89 | 1019.2 |
| 20260503053621 | 35 | 23 | 0.0 | 0.0 | 0.00 | 0.00 | 0.00 | 89 | 1019.1 |
| 20260503053120 | 35 | 23 | 0.0 | 0.0 | 0.00 | 0.00 | 0.00 | 89 | 1019.0 |
| 20260503052615 | 35 | 23 | 0.0 | 0.0 | 0.00 | 0.00 | 0.00 | 88 | 1019.2 |
| 20260503052112 | 35 | 23 | 0.0 | 0.0 | 0.00 | 0.00 | 0.00 | 88 | 1019.1 |
| 20260503051607 | 35 | 23 | 0.0 | 0.0 | 0.00 | 0.00 | 0.00 | 88 | 1019.1 |
| 20260503051106 | 35 | 23 | 0.0 | 0.0 | 0.00 | 0.00 | 0.00 | 88 | 1019.0 |
| 20260503050601 | 36 | 23 | 0.0 | 0.0 | 0.00 | 0.00 | 0.00 | 89 | 1019.1 |
| 20260503050059 | 36 | 23 | 0.0 | 0.0 | 0.00 | 0.00 | 0.00 | 88 | 1019.1 |
| 20260503045555 | 36 | 23 | 0.0 | 0.0 | 0.00 | 0.00 | 0.00 | 88 | 1019.0 |
| 20260503045053 | 36 | 23 | 0.0 | 0.0 | 0.00 | 0.00 | 0.00 | 88 | 1019.3 |
| 20260503044549 | 36 | 23 | 0.0 | 0.0 | 0.00 | 0.00 | 0.00 | 88 | 1019.1 |
| 20260503044047 | 36 | 23 | 0.0 | 0.0 | 0.00 | 0.00 | 0.00 | 88 | 1019.0 |
| 20260503043543 | 36 | 23 | 0.0 | 0.0 | 0.00 | 0.00 | 0.00 | 87 | 1019.2 |
| 20260503043040 | 36 | 23 | 0.0 | 0.0 | 0.00 | 0.00 | 0.00 | 87 | 1019.1 |
| 20260503042537 | 36 | 23 | 0.0 | 0.0 | 0.00 | 0.00 | 0.00 | 87 | 1019.2 |
| 20260503042033 | 37 | 23 | 0.0 | 0.0 | 0.00 | 0.00 | 0.00 | 86 | 1019.4 |
| 20260503041530 | 37 | 23 | 0.0 | 0.0 | 0.00 | 0.00 | 0.00 | 86 | 1019.1 |
| 20260503041028 | 37 | 23 | 0.0 | 0.0 | 0.00 | 0.00 | 0.00 | 85 | 1019.0 |
| 20260503040525 | 37 | 23 | 0.0 | 0.0 | 0.00 | 0.00 | 0.00 | 85 | 1019.1 |
| 20260503040022 | 37 | 23 | 0.0 | 0.0 | 0.00 | 0.00 | 0.00 | 84 | 1019.2 |
| 20260503035519 | 37 | 23 | 0.0 | 0.0 | 0.00 | 0.00 | 0.00 | 84 | 1019.0 |
| 20260503035016 | 37 | 23 | 0.0 | 0.0 | 0.00 | 0.00 | 0.00 | 83 | 1019.0 |
| 20260503034514 | 37 | 23 | 0.0 | 0.0 | 0.00 | 0.00 | 0.00 | 84 | 1019.1 |
| 20260503034010 | 37 | 23 | 0.0 | 0.0 | 0.00 | 0.00 | 0.00 | 84 | 1019.0 |
| 20260503033508 | 38 | 23 | 0.0 | 0.0 | 0.00 | 0.00 | 0.00 | 84 | 1019.1 |
| 20260503033006 | 38 | 23 | 0.0 | 0.0 | 0.00 | 0.00 | 0.00 | 83 | 1019.1 |
| 20260503032504 | 38 | 23 | 0.0 | 0.0 | 0.00 | 0.00 | 0.00 | 82 | 1019.2 |
| 20260503032002 | 38 | 23 | 0.0 | 0.0 | 0.00 | 0.00 | 0.00 | 82 | 1019.1 |
| 20260503031459 | 38 | 23 | 0.0 | 0.0 | 0.00 | 0.00 | 0.00 | 81 | 1019.1 |
| 20260503030955 | 39 | 23 | 0.0 | 0.0 | 0.00 | 0.00 | 0.00 | 81 | 1019.1 |
| 20260503030452 | 39 | 23 | 0.0 | 0.0 | 0.00 | 0.00 | 0.00 | 80 | 1019.0 |
| 20260503025949 | 39 | 23 | 0.0 | 0.0 | 0.00 | 0.00 | 0.00 | 79 | 1019.2 |
| 20260503025446 | 39 | 23 | 0.0 | 0.0 | 0.00 | 0.00 | 0.00 | 80 | 1019.1 |
| 20260503024943 | 39 | 23 | 0.0 | 0.0 | 0.00 | 0.00 | 0.00 | 79 | 1019.2 |
| 20260503024439 | 39 | 23 | 0.0 | 0.0 | 0.00 | 0.00 | 0.00 | 78 | 1019.2 |
| 20260503023937 | 39 | 23 | 0.0 | 0.0 | 0.00 | 0.00 | 0.00 | 76 | 1019.2 |
| 20260503023434 | 39 | 23 | 0.0 | 0.0 | 0.00 | 0.00 | 0.00 | 77 | 1019.3 |
| 20260503022931 | 39 | 23 | 0.0 | 0.0 | 0.00 | 0.00 | 0.00 | 77 | 1019.3 |
| 20260503022426 | 40 | 23 | 0.0 | 0.0 | 0.00 | 0.00 | 0.00 | 76 | 1019.3 |
| 20260503021922 | 40 | 23 | 0.0 | 0.0 | 0.00 | 0.00 | 0.00 | 77 | 1019.1 |
| 20260503021418 | 40 | 23 | 0.0 | 0.0 | 0.00 | 0.00 | 0.00 | 77 | 1019.3 |
| 20260503020916 | 40 | 23 | 0.0 | 0.0 | 0.00 | 0.00 | 0.00 | 76 | 1019.0 |
| 20260503020413 | 40 | 23 | 0.0 | 0.0 | 0.00 | 0.00 | 0.00 | 77 | 1019.1 |
| 20260503015909 | 40 | 23 | 0.0 | 0.0 | 0.00 | 0.00 | 0.00 | 77 | 1019.1 |
| 20260503015407 | 41 | 23 | 0.0 | 0.0 | 0.00 | 0.00 | 0.00 | 74 | 1018.9 |
| 20260503014902 | 41 | 23 | 0.0 | 0.0 | 0.00 | 0.00 | 0.00 | 75 | 1019.0 |
| 20260503014400 | 41 | 23 | 0.0 | 0.0 | 0.00 | 0.00 | 0.00 | 74 | 1018.9 |
| 20260503013858 | 42 | 23 | 0.0 | 0.0 | 0.00 | 0.00 | 0.00 | 74 | 1018.7 |
| 20260503013354 | 42 | 23 | 0.0 | 0.0 | 0.00 | 0.00 | 0.00 | 74 | 1018.7 |
| 20260503012851 | 42 | 23 | 0.0 | 0.0 | 0.00 | 0.00 | 0.00 | 73 | 1018.8 |
| 20260503012349 | 43 | 23 | 0.0 | 0.0 | 0.00 | 0.00 | 0.00 | 71 | 1018.7 |
| 20260503011846 | 43 | 23 | 0.0 | 0.0 | 0.00 | 0.00 | 0.00 | 65 | 1018.6 |
| 20260503011343 | 43 | 23 | 0.0 | 0.0 | 0.00 | 0.00 | 0.00 | 65 | 1018.5 |
| 20260503010839 | 44 | 23 | 0.0 | 0.0 | 0.00 | 0.00 | 0.00 | 66 | 1018.5 |
| 20260503010336 | 45 | 23 | 0.0 | 0.0 | 0.00 | 0.00 | 0.00 | 65 | 1018.5 |
| 20260503005833 | 45 | 23 | 0.0 | 0.0 | 0.00 | 0.00 | 0.00 | 63 | 1018.3 |
| 20260503005331 | 46 | 23 | 0.0 | 0.0 | 0.00 | 0.00 | 0.00 | 57 | 1018.4 |
| 20260503004826 | 46 | 23 | 0.0 | 0.0 | 0.00 | 0.00 | 0.00 | 59 | 1018.5 |
| 20260503004324 | 47 | 23 | 0.0 | 0.0 | 0.00 | 0.00 | 0.00 | 54 | 1018.5 |
| 20260503003822 | 47 | 352 | 0.9 | 1.7 | 0.00 | 0.00 | 0.00 | 53 | 1018.3 |
| 20260503003318 | 48 | 322 | 1.7 | 3.5 | 0.00 | 0.00 | 0.00 | 51 | 1018.3 |
| 20260503002815 | 48 | 32 | 1.7 | 3.5 | 0.00 | 0.00 | 0.00 | 51 | 1018.4 |
| 20260503002312 | 48 | 302 | 1.7 | 3.5 | 0.00 | 0.00 | 0.00 | 50 | 1018.2 |
| 20260503001809 | 48 | 25 | 0.9 | 2.6 | 0.00 | 0.00 | 0.00 | 50 | 1018.2 |
| 20260503001305 | 48 | 3 | 2.6 | 3.5 | 0.00 | 0.00 | 0.00 | 49 | 1018.1 |
| 20260503000803 | 49 | 1 | 1.7 | 2.6 | 0.00 | 0.00 | 0.00 | 50 | 1018.0 |
| 20260503000300 | 49 | 36 | 0.0 | 1.7 | 0.00 | 0.00 | 0.00 | 49 | 1018.0 |
| 20260502235757 | 49 | 301 | 2.6 | 2.6 | 0.00 | 0.00 | 0.00 | 49 | 1017.9 |
| 20260502235254 | 50 | 354 | 2.6 | 3.5 | 0.00 | 0.00 | 0.00 | 48 | 1017.9 |
| 20260502234750 | 50 | 341 | 1.7 | 3.5 | 0.00 | 0.00 | 0.00 | 49 | 1017.7 |
| 20260502234248 | 50 | 3 | 3.5 | 7.8 | 0.00 | 0.00 | 0.00 | 47 | 1018.0 |
| 20260502233744 | 50 | 1 | 3.5 | 5.2 | 0.00 | 0.00 | 0.00 | 47 | 1017.9 |
| 20260502233241 | 50 | 318 | 3.5 | 3.5 | 0.00 | 0.00 | 0.00 | 46 | 1017.8 |
| 20260502232736 | 51 | 3 | 1.7 | 2.6 | 0.00 | 0.00 | 0.00 | 45 | 1017.9 |
| 20260502232234 | 50 | 29 | 2.6 | 6.1 | 0.00 | 0.00 | 0.00 | 45 | 1017.8 |
| 20260502231730 | 50 | 297 | 1.7 | 3.5 | 0.00 | 0.00 | 0.00 | 46 | 1017.6 |
| 20260502231228 | 50 | 43 | 0.9 | 3.5 | 0.00 | 0.00 | 0.00 | 46 | 1017.9 |
| 20260502230727 | 51 | 13 | 1.7 | 3.5 | 0.00 | 0.00 | 0.00 | 47 | 1017.6 |
| 20260502230225 | 51 | 336 | 0.9 | 2.6 | 0.00 | 0.00 | 0.00 | 46 | 1017.7 |
| 20260502225720 | 52 | 37 | 0.9 | 2.6 | 0.00 | 0.00 | 0.00 | 44 | 1017.6 |
| 20260502225218 | 51 | 139 | 0.9 | 3.5 | 0.00 | 0.00 | 0.00 | 44 | 1017.4 |
| 20260502224714 | 51 | 335 | 2.6 | 3.5 | 0.00 | 0.00 | 0.00 | 45 | 1017.7 |
| 20260502224211 | 51 | 318 | 3.5 | 5.2 | 0.00 | 0.00 | 0.00 | 43 | 1017.3 |
| 20260502223708 | 52 | 302 | 3.5 | 6.1 | 0.00 | 0.00 | 0.00 | 41 | 1017.6 |
| 20260502223206 | 52 | 335 | 1.7 | 3.5 | 0.00 | 0.00 | 0.00 | 45 | 1017.4 |
| 20260502222704 | 53 | 319 | 3.5 | 5.2 | 0.00 | 0.00 | 0.00 | 40 | 1017.5 |
| 20260502222200 | 52 | 299 | 1.7 | 3.5 | 0.00 | 0.00 | 0.00 | 42 | 1017.6 |
| 20260502221656 | 51 | 36 | 1.7 | 2.6 | 0.00 | 0.00 | 0.00 | 43 | 1017.4 |
| 20260502221153 | 51 | 328 | 2.6 | 3.5 | 0.00 | 0.00 | 0.00 | 43 | 1017.5 |
| 20260502220649 | 52 | 335 | 1.7 | 5.2 | 0.00 | 0.00 | 0.00 | 44 | 1017.4 |
| 20260502220145 | 51 | 309 | 2.6 | 5.2 | 0.00 | 0.00 | 0.00 | 44 | 1017.4 |
| 20260502215643 | 51 | 352 | 3.5 | 7.0 | 0.00 | 0.00 | 0.00 | 42 | 1017.4 |
| 20260502215139 | 52 | 325 | 3.5 | 5.2 | 0.00 | 0.00 | 0.00 | 41 | 1017.3 |
| 20260502214637 | 53 | 352 | 2.6 | 6.1 | 0.00 | 0.00 | 0.00 | 42 | 1017.3 |
| 20260502214134 | 52 | 336 | 3.5 | 5.2 | 0.00 | 0.00 | 0.00 | 42 | 1017.4 |
| 20260502213631 | 52 | 61 | 0.9 | 1.7 | 0.00 | 0.00 | 0.00 | 42 | 1017.3 |
| 20260502213128 | 52 | 31 | 1.7 | 3.5 | 0.00 | 0.00 | 0.00 | 43 | 1017.3 |
| 20260502212627 | 53 | 348 | 2.6 | 3.5 | 0.00 | 0.00 | 0.00 | 41 | 1017.2 |
| 20260502212125 | 53 | 17 | 2.6 | 5.2 | 0.00 | 0.00 | 0.00 | 42 | 1017.2 |
| 20260502211626 | 53 | 83 | 0.0 | 2.6 | 0.00 | 0.00 | 0.00 | 39 | 1017.3 |
| 20260502211123 | 51 | 311 | 1.7 | 2.6 | 0.00 | 0.00 | 0.00 | 41 | 1017.3 |
| 20260502210621 | 52 | 309 | 3.5 | 5.2 | 0.00 | 0.00 | 0.00 | 42 | 1017.2 |
| 20260502210117 | 52 | 315 | 3.5 | 5.2 | 0.00 | 0.00 | 0.00 | 43 | 1017.2 |
| 20260502205614 | 51 | 329 | 1.7 | 2.6 | 0.00 | 0.00 | 0.00 | 41 | 1017.2 |
| 20260502205111 | 51 | 307 | 1.7 | 3.5 | 0.00 | 0.00 | 0.00 | 41 | 1017.4 |
| 20260502204608 | 52 | 9 | 1.7 | 2.6 | 0.00 | 0.00 | 0.00 | 42 | 1017.2 |
| 20260502204105 | 52 | 336 | 0.9 | 5.2 | 0.00 | 0.00 | 0.00 | 42 | 1017.3 |
| 20260502203602 | 52 | 22 | 2.6 | 3.5 | 0.00 | 0.00 | 0.00 | 42 | 1017.1 |
| 20260502203100 | 52 | 284 | 1.7 | 2.6 | 0.00 | 0.00 | 0.00 | 41 | 1017.3 |
| 20260502202555 | 52 | 304 | 1.7 | 2.6 | 0.00 | 0.00 | 0.00 | 42 | 1017.4 |
| 20260502202054 | 53 | 0 | 1.7 | 5.2 | 0.00 | 0.00 | 0.00 | 39 | 1017.3 |
| 20260502201549 | 52 | 305 | 2.6 | 5.2 | 0.00 | 0.00 | 0.00 | 41 | 1017.4 |
| 20260502201046 | 53 | 328 | 3.5 | 7.0 | 0.00 | 0.00 | 0.00 | 39 | 1017.5 |
| 20260502200542 | 53 | 312 | 3.5 | 5.2 | 0.00 | 0.00 | 0.00 | 40 | 1017.4 |
| 20260502200040 | 53 | 48 | 0.9 | 6.1 | 0.00 | 0.00 | 0.00 | 40 | 1017.3 |
| 20260502195537 | 55 | 15 | 1.7 | 5.2 | 0.00 | 0.00 | 0.00 | 39 | 1017.4 |
| 20260502195033 | 56 | 301 | 1.7 | 6.1 | 0.00 | 0.00 | 0.00 | 41 | 1017.5 |
| 20260502194530 | 54 | 341 | 4.3 | 6.1 | 0.00 | 0.00 | 0.00 | 41 | 1017.3 |
| 20260502194026 | 55 | 315 | 1.7 | 3.5 | 0.00 | 0.00 | 0.00 | 40 | 1017.6 |
| 20260502193524 | 52 | 321 | 1.7 | 2.6 | 0.00 | 0.00 | 0.00 | 40 | 1017.6 |
| 20260502193020 | 53 | 336 | 3.5 | 5.2 | 0.00 | 0.00 | 0.00 | 39 | 1017.5 |
| 20260502192516 | 53 | 311 | 5.2 | 6.1 | 0.00 | 0.00 | 0.00 | 40 | 1017.7 |
| 20260502192014 | 53 | 20 | 4.3 | 7.0 | 0.00 | 0.00 | 0.00 | 40 | 1017.6 |
| 20260502191510 | 54 | 325 | 1.7 | 7.0 | 0.00 | 0.00 | 0.00 | 39 | 1017.5 |
| 20260502191008 | 53 | 349 | 2.6 | 3.5 | 0.00 | 0.00 | 0.00 | 41 | 1017.6 |
| 20260502190505 | 54 | 312 | 4.3 | 6.1 | 0.00 | 0.00 | 0.00 | 40 | 1017.7 |
| 20260502190001 | 53 | 341 | 1.7 | 3.5 | 0.00 | 0.00 | 0.00 | 42 | 1018.0 |
| 20260502185457 | 52 | 324 | 0.9 | 1.7 | 0.00 | 0.00 | 0.00 | 48 | 1017.8 |